This is the latest recevied weather packets stored in our database for station/object KW4UJ. If no packets are shown the sender has not sent any weather packets the latest 10 day(s).
| Time | Temp. | Humidity | Pressure | Rain* | Wind** | Luminosity | Snow |
|---|---|---|---|---|---|---|---|
| 1777815918 | 9.44° C | 46% | 1017.4 hPa | 0 mm | - | 206 W/m² | - |
| 1777815615 | 9.44° C | 45% | 1017.3 hPa | 0 mm | - | 397 W/m² | - |
| 1777815312 | 9.44° C | 45% | 1017.4 hPa | 0 mm | - | 404 W/m² | - |
| 1777815009 | 9.44° C | 46% | 1017.5 hPa | 0 mm | - | 382 W/m² | - |
| 1777814705 | 10° C | 46% | 1017.3 hPa | 0 mm | - | 285 W/m² | - |
| 1777814401 | 10° C | 45% | 1017.3 hPa | 0 mm | - | 343 W/m² | - |
| 1777814099 | 10° C | 46% | 1017.4 hPa | 0 mm | - | 323 W/m² | - |
| 1777813795 | 9.44° C | 47% | 1017.7 hPa | 0 mm | - | 314 W/m² | - |
| 1777813493 | 9.44° C | 48% | 1017.4 hPa | 0 mm | - | 302 W/m² | - |
| 1777813191 | 8.89° C | 48% | 1017.3 hPa | 0 mm | - | 285 W/m² | - |
| 1777812889 | 8.89° C | 50% | 1017.5 hPa | 0 mm | - | 267 W/m² | - |
| 1777812584 | 8.89° C | 52% | 1017.3 hPa | 0 mm | - | 260 W/m² | - |
| 1777812282 | 8.89° C | 51% | 1017.4 hPa | 0 mm | - | 241 W/m² | - |
| 1777811980 | 8.33° C | 52% | 1017.3 hPa | 0 mm | - | 232 W/m² | - |
| 1777811679 | 8.89° C | 51% | 1017.4 hPa | 0 mm | - | 220 W/m² | - |
| 1777811374 | 8.33° C | 52% | 1017.4 hPa | 0 mm | - | 206 W/m² | - |
| 1777811072 | 8.33° C | 53% | 1017.2 hPa | 0 mm | - | 194 W/m² | - |
| 1777810769 | 8.33° C | 53% | 1017.3 hPa | 0 mm | - | 180 W/m² | - |
| 1777810466 | 7.78° C | 54% | 1017.1 hPa | 0 mm | - | 168 W/m² | - |
| 1777810162 | 7.78° C | 54% | 1017.1 hPa | 0 mm | - | 155 W/m² | - |
| 1777809859 | 8.33° C | 54% | 1017.2 hPa | 0 mm | - | 143 W/m² | - |
| 1777809556 | 7.78° C | 55% | 1017.1 hPa | 0 mm | - | 131 W/m² | - |
| 1777809254 | 7.78° C | 57% | 1017 hPa | 0 mm | - | 119 W/m² | - |
| 1777808952 | 7.22° C | 59% | 1017 hPa | 0 mm | - | 106 W/m² | - |
| 1777808649 | 7.78° C | 60% | 1016.8 hPa | 0 mm | - | 96 W/m² | - |
* Rain latest hour (hover to see other rain measurements)
** Current wind speed in m/s (hover to see current wind gust speed)